Regional Weather Roundup
Issued by NWS

Home | Current Version | Previous Version | Text Only | Print | Product List | Glossary Off
Versions: 1 2 3 4 5 6 7 8 9 10 11 12 13 14 15 16 17 18 19 20 21 22 23 24 25 26 27 28 29 30 31 32 33 34 35 36 37 38 39 40 41 42 43 44 45 46 47 48 49 50

118
ASUS43 KDTX 220010
RWRMI
MICHIGAN HOURLY REGIONAL WEATHER ROUNDUP
NATIONAL WEATHER SERVICE DETROIT/PONTIAC MI
ISSUED BY NATIONAL WEATHER SERVICE GRAND RAPIDS MI
800 PM EDT MON AUG 21 2017

NOTE: "FAIR" INDICATES FEW OR NO CLOUDS BELOW 12,000 FEET WITH NO
SIGNIFICANT WEATHER AND/OR OBSTRUCTION TO VISIBILITY.

MIZ047>049-052>055-059>063-066>070-074>076-081>083-220100-
SOUTHEAST LOWER MICHIGAN

CITY           SKY/WX    TMP DP  RH WIND       PRES   REMARKS
ADRIAN         PTCLDY    80  69  69 W6        30.03R
6HR MIN TEMP:  79; 6HR MAX TEMP:  87;

ALMA           PTCLDY    79  69  71 S6G20     29.97S
ANN ARBOR      PTCLDY    82  69  64 S9        30.00S
BAD AXE        PTCLDY    78  67  69 S7        29.99S
6HR MIN TEMP:  78; 6HR MAX TEMP:  85;

DETROIT CITY   CLEAR     82  70  66 S7        30.00R
6HR MIN TEMP:  82; 6HR MAX TEMP:  86;

DETROIT        MOCLDY    82  72  71 S6        30.00S
6HR MIN TEMP:  81; 6HR MAX TEMP:  86;

FLINT          MOCLDY    81  70  69 S6        29.99S
6HR MIN TEMP:  81; 6HR MAX TEMP:  87;

GROSSE ILE     CLEAR     78  73  87 S5        29.99R
6HR MIN TEMP:  77; 6HR MAX TEMP:  85;

HILLSDALE      CLOUDY    79  66  65 S6        30.03F
HOWELL         PTCLDY    81  69  68 S5        30.00F
6HR MIN TEMP:  80; 6HR MAX TEMP:  85;


CITY           SKY/WX    TMP DP  RH WIND       PRES   REMARKS
JACKSON        CLOUDY    82  67  60 S8        30.01S
6HR MIN TEMP:  81; 6HR MAX TEMP:  87;

LANSING        CLOUDY    81  69  67 S7        29.99S
6HR MIN TEMP:  81; 6HR MAX TEMP:  85;

MASON          PTCLDY    81  71  71 SE3       29.99F
MONROE         PTCLDY    83  70  65 SW5       29.99S
MT. CLEMENS    MOCLDY    78  71  79 S9        29.99R
6HR MIN TEMP:  78; 6HR MAX TEMP:  85;

PONTIAC        CLOUDY    82  69  64 S5        30.00R
6HR MIN TEMP:  81; 6HR MAX TEMP:  87;

PORT HOPE        N/A     78  66  66 S9        29.96S
6HR MIN TEMP:  74; 6HR MAX TEMP:  83;

PORT HURON     PTCLDY    79  68  69 CALM      30.00S
TRI CITIES     CLOUDY    81  72  74 S8        29.96F
6HR MIN TEMP:  81; 6HR MAX TEMP:  85;

YPSILANTI      CLOUDY    84  70  62 SW9       30.00S
6HR MIN TEMP:  82; 6HR MAX TEMP:  91;

$$
MIZ043>046-050>051-056>058-064>065-071>073-077>080-220100-
SOUTHWEST LOWER MICHIGAN

CITY           SKY/WX    TMP DP  RH WIND       PRES   REMARKS
BATTLE CREEK   CLOUDY    80  68  66 S9        30.01S
6HR MIN TEMP:  80; 6HR MAX TEMP:  86;

BENTON HARBOR  PTCLDY    82  70  66 S8        29.98F
6HR MIN TEMP:  76; 6HR MAX TEMP:  85;

BIG RAPIDS     CLOUDY    76  69  78 SW6       29.97R
6HR MIN TEMP:  76; 6HR MAX TEMP:  81;

COLDWATER      CLOUDY    80  67  66 S3        30.02F
6HR MIN TEMP:  80; 6HR MAX TEMP:  87;

HOLLAND        LGT RAIN  77  67  71 SW12G22   30.00R
6HR MIN TEMP:  75; 6HR MAX TEMP:  81; 6HR PCP:  0.01;

GRAND RAPIDS   CLOUDY    80  69  69 S8        29.98R
6HR MIN TEMP:  80; 6HR MAX TEMP:  83;

KALAMAZOO      CLOUDY    81  66  60 S8        30.00S
6HR MIN TEMP:  81; 6HR MAX TEMP:  87;

MARSHALL       CLOUDY    80  68  65 SW7       30.01S
6HR MIN TEMP:  80; 6HR MAX TEMP:  87;

MOUNT PLEASANT CLOUDY    82  68  62 SW6       29.96R
6HR MIN TEMP:  82; 6HR MAX TEMP:  88;

MUSKEGON       CLOUDY    76  71  85 S10       29.98S
6HR MIN TEMP:  75; 6HR MAX TEMP:  81;

STURGIS        PTCLDY    79  70  72 S6        30.02S
6HR MIN TEMP:  79; 6HR MAX TEMP:  84;

$$
MIZ016>042-220100-
NORTHERN LOWER MICHIGAN

CITY           SKY/WX    TMP DP  RH WIND       PRES   REMARKS
ALPENA         PTCLDY    78  70  76 S7        29.94F
6HR MIN TEMP:  77; 6HR MAX TEMP:  86;

BEAVER ISLAND  CLOUDY    73  68  84 W3        29.93S
6HR MIN TEMP:  72; 6HR MAX TEMP:  79;

BELLAIRE       CLOUDY    76  70  82 CALM      29.91F
6HR MIN TEMP:  75; 6HR MAX TEMP:  84;

CADILLAC       CLOUDY    77  68  73 SW8       29.97S
CHARLEVOIX     CLOUDY    73  69  89 CALM      29.94F
GAYLORD        CLOUDY    77  64  64 S5        29.96S
6HR MIN TEMP:  77; 6HR MAX TEMP:  82;

HOUGHTON LAKE  MOCLDY    77  68  73 S6        29.97S
6HR MIN TEMP:  77; 6HR MAX TEMP:  84;

MANISTEE       CLOUDY    74  71  91 VRB3      29.93F
OSCODA         MOCLDY    80  67  64 SE3       29.95S
6HR MIN TEMP:  78; 6HR MAX TEMP:  85;

PELLSTON       CLOUDY    77  69  76 NE6       29.92F
6HR MIN TEMP:  77; 6HR MAX TEMP:  83;

TRAVERSE CITY  CLOUDY    81  69  67 SW5       29.91R
6HR MIN TEMP:  81; 6HR MAX TEMP:  86;

LUDINGTON      CLOUDY    73  69  87 SW6       29.95S
6HR MIN TEMP:  72; 6HR MAX TEMP:  79;

$$
MIZ007>008-015-220100-
EASTERN UPPER MICHIGAN

CITY           SKY/WX    TMP DP  RH WIND       PRES   REMARKS
KINROSS        CLOUDY    74  67  78 S3        29.94S
6HR MIN TEMP:  74; 6HR MAX TEMP:  81;

MACKINAC ISLAN CLOUDY    72  66  81 E6        29.93F
6HR MIN TEMP:  72; 6HR MAX TEMP:  77;

NEWBERRY       CLOUDY    70  69  95 S5        29.93S
6HR MIN TEMP:  70; 6HR MAX TEMP:  78;

S. S. MARIE    CLOUDY    75  64  68 SE5       29.92F
6HR MIN TEMP:  75; 6HR MAX TEMP:  82;

$$
MIZ004>006-011>014-085-220100-
CENTRAL UPPER MICHIGAN

CITY           SKY/WX    TMP DP  RH WIND       PRES   REMARKS
MANISTIQUE     CLOUDY    69  63  81 S7        29.92F
6HR MIN TEMP:  69; 6HR MAX TEMP:  76;

ESCANABA       LGT RAIN  70  69  97 SE7       29.89F FOG
6HR MIN TEMP:  70; 6HR MAX TEMP:  77; 6HR PCP: TRACE;

MENOMINEE      CLOUDY    75  70  84 S5        29.90F
6HR MIN TEMP:  73; 6HR MAX TEMP:  78;

SAWYER-GWINN   CLEAR     64  59  82 NE5       29.92F
$$
MIZ001>003-009>011-084-220100-
WESTERN UPPER MICHIGAN

CITY           SKY/WX    TMP DP  RH WIND       PRES   REMARKS
IRON MOUNTAIN  TSTM      72  67  84 S8        29.89F
6HR MIN TEMP:  72; 6HR MAX TEMP:  79; 6HR PCP:  0.01;

HOUGHTON       CLOUDY    63  55  75 E8        29.89F
6HR MIN TEMP:  63; 6HR MAX TEMP:  74;

COPPER HARBOR    N/A     64  58  80 S3        29.89F
6HR MIN TEMP:  62; 6HR MAX TEMP:  67;

IRONWOOD       CLOUDY    66  64  93 E3        29.88F
6HR MIN TEMP:  66; 6HR MAX TEMP:  73; 6HR PCP:  0.01;

$$

ABBREVIATIONS USED IN REMARKS
   TC - TEMPERATURE IN CELSIUS
  WCI - WIND CHILL INDEX
   HX - HEAT INDEX
  VSB - VISIBILITY





USA.gov is the U.S. government's official web portal to all federal, state and local government web resources and services.